[[{"header":{"parameterUnit":"m.s-1","parameterCategory":1,"la1":30.2991,"la2":30.254,"lo1":-89.0895,"lo2":-89.0444,"dy":0.0017,"dx":0.0017,"nx":28,"ny":28,"refTime":"2024-07-09T09:00:00:Z","depth":0,"parameterNumber":2,"parameterNumberName":"U-component_of_WINDS"},"data":[0,0,0,0,0,0,0,0,0,0,0,0,0,0,0,0,0,0,0,0,0,0,0,0,0,0,0,0,0,0,0,0,0,0,0,0,0,0,0,0,0,0,0,0,0,0,0,0,0,0,0,0,0,0,0,0,0,0,4.2983,4.2985,0,4.3171,4.3174,4.3176,4.3131,4.3127,4.3123,4.312,4.3315,4.3324,4.3332,0,0,0,0,0,0,0,0,0,0,0,0,0,4.2586,4.2594,4.2983,4.2986,4.2988,4.3171,4.3174,4.3176,4.3131,4.3127,4.3122,4.3118,4.3313,4.3323,4.3333,0,0,0,0,0,0,0,0,0,0,0,0,0,4.2765,4.2596,4.2983,4.2987,4.299,4.3171,4.3174,4.3177,4.3132,4.3127,4.3121,4.3116,4.3309,4.3322,4.3335,4.3523,0,0,4.3374,4.3379,0,0,0,0,0,0,0,0,4.2755,4.278,4.2984,4.2987,4.299,4.3122,4.3105,4.3293,4.3134,4.3078,4.312,4.3114,4.3256,4.3273,4.332,4.3532,4.3541,4.3375,4.3383,4.3388,4.3392,0,0,0,0,0,0,0,4.2743,4.2771,4.3058,4.2987,4.2991,4.2981,4.3,4.3141,4.3195,4.3083,4.308,4.3103,4.3256,4.3308,4.3324,4.3543,4.3375,4.3386,4.3394,4.3399,4.3917,4.3923,0,0,0,0,0,0,4.2728,4.2761,4.3052,4.3063,4.2857,4.2992,4.3014,4.3085,4.3194,4.3205,4.3107,4.31,4.3288,4.3309,4.3331,4.3557,4.3388,4.34,4.3408,4.3911,4.3919,4.3925,0,0,0,0,0,0,4.2719,4.2754,4.3044,4.2912,4.2948,4.3005,4.3085,4.3092,4.3143,4.3212,4.3222,4.3149,4.3285,4.3313,4.3475,4.3563,4.3406,4.3418,4.3904,4.3914,4.3922,4.4012,0,0,0,0,0,0,4.2708,4.2751,4.2823,4.2914,4.2955,4.3185,4.3091,4.3099,4.3165,4.3157,4.3254,4.3265,4.3283,4.3456,4.3488,4.3578,4.3428,4.3897,4.3908,4.3919,4.4001,4.4023,4.4041,0,0,0,0,0,4.2694,4.2842,4.2827,4.2862,4.3046,4.319,4.3214,4.323,4.3172,4.3245,4.3289,4.3262,4.3549,4.3473,4.3508,4.3604,4.3891,4.3905,4.3918,4.3992,4.4018,4.4041,0,0,0,0,0,0,4.2762,4.2854,4.2838,4.302,4.3097,4.3182,4.3275,4.3258,4.3354,4.3343,4.336,4.3382,4.3547,4.3592,4.3506,4.3791,4.3712,4.3733,4.3755,4.3781,4.3801,4.3786,4.3439,0,0,0,0,0,4.2798,4.2906,4.2981,4.3134,4.3174,4.3218,4.3281,4.3287,4.3368,4.3401,4.3456,4.3537,4.3645,4.3716,4.3819,4.4007,4.4027,4.4091,4.411,4.4127,4.4145,4.4246,4.4274,4.397,4.397,4.397,0,0,4.2874,4.2937,4.3005,4.315,4.321,4.3322,4.3246,4.3368,4.3451,4.342,4.3575,4.3619,4.371,4.3885,4.3966,4.3928,4.4233,4.4144,4.4156,4.4166,4.4263,4.4291,4.4317,4.3979,4.3977,4.3976,0,0,4.3069,4.3128,4.3261,4.3323,4.3415,4.3443,4.3475,4.3562,4.3589,4.3745,4.3723,4.3823,4.4009,4.4074,4.4131,4.4349,4.4327,4.4382,4.4487,4.4585,4.4609,4.463,4.4706,4.4734,4.44,4.44,4.4401,0,4.3151,4.3319,4.3332,4.3456,4.3519,4.3494,4.3629,4.3688,4.381,4.3855,4.381,4.4041,4.4101,4.4291,4.4343,4.4391,4.4428,4.4371,4.4604,4.4626,4.4646,4.4719,4.4747,4.4406,4.4406,4.4405,4.4404,0,4.3415,4.3531,4.3628,4.3743,4.3818,4.3947,4.398,4.4054,4.4053,4.4085,4.4244,4.4314,4.443,4.4476,4.4477,4.4665,4.4639,4.46,4.452,4.4681,4.4749,4.4777,4.4415,4.4413,4.4411,4.4409,0,0,4.3659,4.3779,4.3814,4.3865,4.3964,4.4054,4.4182,4.4294,4.4356,4.4441,4.4547,4.4704,4.4668,4.4733,4.4741,4.4828,4.4993,4.4777,4.478,4.4814,4.5203,4.5231,4.5263,4.4979,4.4985,4.4989,4.5195,0,4.3861,4.4083,4.4098,4.43,4.4406,4.4384,4.4494,4.4567,4.46,4.4696,4.4733,4.4844,4.4788,4.4827,4.4912,4.4955,4.5071,4.494,4.5078,4.5083,4.5054,4.5299,4.5329,4.552,4.5222,4.5226,4.523,0,4.4127,4.4217,4.4429,4.451,4.4556,4.4655,4.4757,4.485,4.4931,4.4949,4.5021,4.5017,4.5147,4.5063,4.5242,4.5153,4.521,4.524,4.5247,4.526,4.5165,4.5317,4.5581,4.5609,4.5272,4.5269,4.5266,0,4.4281,4.4456,4.4604,4.4649,4.4749,4.4819,4.4864,4.494,4.5006,4.5096,4.5138,4.5244,4.5301,4.5382,4.5406,4.5343,4.5584,4.5503,4.5602,4.5602,4.5653,4.565,4.593,4.5693,4.5692,4.5692,4.5691,0,4.4505,4.4635,4.4675,4.4766,4.491,4.4926,4.5069,4.511,4.5177,4.5276,4.5264,4.5357,4.5383,4.5481,4.5501,4.5645,4.5672,4.569,4.5693,4.569,4.5688,4.5727,4.5714,4.5699,4.5698,4.5696,4.5695,0,4.4701,4.4734,4.4893,4.4974,4.4997,4.51,4.5169,4.5256,4.5287,4.5412,4.5443,4.5492,4.5606,4.5638,4.5776,4.5789,4.5958,4.595,4.593,4.593,4.6027,4.6017,4.6341,4.6384,4.612,4.6123,4.6125,0,4.4841,4.494,4.5031,4.5095,4.5142,4.5247,4.5313,4.5333,4.5402,4.5501,4.5577,4.5689,4.578,4.5964,4.6012,4.6117,4.6111,4.6217,4.6126,4.612,4.611,4.6104,4.6113,4.6234,4.6237,4.6239,4.6241,0,4.5086,4.5096,4.5192,4.5293,4.5372,4.5453,4.5531,4.5584,4.5614,4.5693,4.5809,4.5879,4.6019,4.613,4.6236,4.6282,4.6267,4.6269,4.6297,4.6295,4.6278,4.6286,4.5975,4.6261,4.6259,4.6258,4.6257,4.6256,4.5258,4.5344,4.542,4.5526,4.5586,4.5658,4.5744,4.5785,4.5881,4.5995,4.6001,4.6126,4.6204,4.6344,4.6396,4.6494,4.6463,4.6505,4.6515,4.6524,4.6532,4.6263,4.6514,4.6514,4.6513,4.6513,4.6512,0,4.55,4.5547,4.5645,4.5753,4.5836,4.5813,4.5897,4.5969,4.6078,4.6152,4.6241,4.6373,4.648,4.6536,4.6643,4.6711,4.6707,4.6738,4.6733,4.6744,4.6555,4.6519,4.674,4.674,4.674,4.674,4.674,4.674,4.5636,4.5779,4.5799,4.5971,4.6018,4.6139,4.6189,4.6256,4.6314,4.6461,4.655,4.6585,4.6652,4.6763,4.686,4.6874,4.6913,4.6949,4.6959,4.6781,4.6757,4.6735,4.6701,4.6957,4.6958,4.7139,4.7141,4.7142]},{"header":{"parameterUnit":"m.s-1","parameterCategory":1,"la1":30.2991,"la2":30.254,"lo1":-89.0895,"lo2":-89.0444,"dy":0.0017,"dx":0.0017,"nx":28,"ny":28,"refTime":"2024-07-09T09:00:00:Z","depth":0,"parameterNumber":3,"parameterNumberName":"V-component_of_WINDS"},"data":[0,0,0,0,0,0,0,0,0,0,0,0,0,0,0,0,0,0,0,0,0,0,0,0,0,0,0,0,0,0,0,0,0,0,0,0,0,0,0,0,0,0,0,0,0,0,0,0,0,0,0,0,0,0,0,0,0,0,0.6724,0.6724,0,0.6755,0.6756,0.6756,0.6726,0.6725,0.6724,0.6723,0.6759,0.6761,0.6763,0,0,0,0,0,0,0,0,0,0,0,0,0,0.6642,0.6644,0.6724,0.6724,0.6725,0.6755,0.6756,0.6756,0.6726,0.6725,0.6723,0.6722,0.6758,0.676,0.6763,0,0,0,0,0,0,0,0,0,0,0,0,0,0.6676,0.6644,0.6724,0.6713,0.6713,0.6755,0.6756,0.6756,0.6727,0.6725,0.6723,0.6721,0.6757,0.676,0.6763,0.6819,0,0,0.6773,0.6774,0,0,0,0,0,0,0,0,0.6674,0.6679,0.6715,0.6714,0.6714,0.6735,0.674,0.6777,0.6727,0.6722,0.6723,0.6721,0.6752,0.6756,0.6766,0.682,0.6822,0.6773,0.6775,0.6776,0.6777,0,0,0,0,0,0,0,0.6672,0.6678,0.6736,0.6715,0.6715,0.6708,0.6711,0.6747,0.6747,0.6722,0.672,0.6724,0.6752,0.6763,0.6766,0.6822,0.6773,0.6776,0.6778,0.6779,0.6925,0.6927,0,0,0,0,0,0,0.667,0.6676,0.6735,0.6737,0.6689,0.6711,0.6715,0.673,0.6746,0.6747,0.6725,0.6722,0.6758,0.6763,0.6768,0.6834,0.6776,0.6779,0.6781,0.6923,0.6925,0.6927,0,0,0,0,0,0,0.6668,0.6676,0.6734,0.6706,0.6713,0.6715,0.6732,0.6732,0.6742,0.6749,0.6749,0.6736,0.6757,0.6763,0.6806,0.6835,0.6781,0.6783,0.6921,0.6924,0.6926,0.6968,0,0,0,0,0,0,0.6666,0.6675,0.6695,0.6707,0.6714,0.6771,0.6734,0.6733,0.6747,0.6744,0.6759,0.676,0.6756,0.6802,0.6809,0.6839,0.6786,0.6918,0.6922,0.6925,0.6964,0.6972,0.6979,0,0,0,0,0,0.6663,0.6706,0.6696,0.6704,0.674,0.6773,0.6778,0.6771,0.675,0.6771,0.6775,0.676,0.683,0.6806,0.6815,0.6845,0.6916,0.6921,0.6925,0.6961,0.6971,0.6979,0,0,0,0,0,0,0.67,0.6708,0.6697,0.6745,0.6758,0.6768,0.6794,0.6781,0.6802,0.6798,0.679,0.6794,0.684,0.6847,0.6819,0.69,0.687,0.6876,0.6894,0.6904,0.6911,0.6909,0.6788,0,0,0,0,0,0.6713,0.6738,0.6744,0.6786,0.6793,0.6792,0.6807,0.68,0.6815,0.6821,0.6828,0.6843,0.6869,0.6887,0.6911,0.6964,0.6968,0.699,0.6997,0.7003,0.7009,0.704,0.705,0.6942,0.6942,0.6942,0,0,0.6742,0.6749,0.6766,0.6793,0.6803,0.6831,0.6798,0.6828,0.6849,0.6826,0.6867,0.6873,0.6889,0.6938,0.696,0.6945,0.704,0.7009,0.7014,0.7017,0.7045,0.7056,0.7065,0.6945,0.6945,0.6944,0,0,0.6808,0.6815,0.6851,0.6862,0.6876,0.6875,0.6884,0.6896,0.6898,0.6939,0.6922,0.6947,0.6992,0.7005,0.7017,0.7088,0.7075,0.7096,0.7136,0.7165,0.7174,0.7181,0.7208,0.7218,0.7102,0.7102,0.7102,0,0.6842,0.6882,0.6872,0.6903,0.6917,0.6896,0.6933,0.6944,0.6966,0.6977,0.6959,0.7014,0.7024,0.7077,0.7094,0.7104,0.7115,0.7095,0.7173,0.718,0.7187,0.7213,0.7223,0.7105,0.7104,0.7104,0.7104,0,0.6923,0.6951,0.6979,0.7,0.7016,0.7051,0.7047,0.7065,0.7057,0.7059,0.7101,0.7112,0.7138,0.715,0.7143,0.7201,0.7192,0.7174,0.7144,0.72,0.7224,0.7234,0.7108,0.7107,0.7107,0.7106,0,0,0.7015,0.7029,0.704,0.705,0.7064,0.7086,0.712,0.7144,0.7161,0.7177,0.7206,0.7244,0.7227,0.7241,0.7236,0.7261,0.7319,0.724,0.7241,0.7256,0.7386,0.7401,0.7412,0.731,0.7311,0.7313,0.7385,0,0.7083,0.714,0.7132,0.7188,0.7215,0.7195,0.7225,0.7238,0.724,0.7263,0.7266,0.7294,0.7269,0.7277,0.7302,0.7307,0.7345,0.7301,0.7339,0.734,0.7337,0.7424,0.744,0.7507,0.7394,0.7396,0.7397,0,0.717,0.7188,0.7246,0.7257,0.7268,0.7295,0.7317,0.7339,0.7354,0.7354,0.7369,0.7359,0.7395,0.7362,0.7412,0.7382,0.7397,0.7402,0.7404,0.7409,0.7373,0.7433,0.7529,0.7539,0.7411,0.741,0.7409,0,0.7232,0.7272,0.7312,0.732,0.7334,0.7353,0.736,0.7373,0.7388,0.7408,0.7418,0.7442,0.7456,0.7475,0.7472,0.7448,0.7523,0.749,0.7525,0.7526,0.7544,0.7543,0.7645,0.755,0.755,0.755,0.755,0,0.731,0.7347,0.734,0.7365,0.7406,0.7397,0.7439,0.7443,0.7455,0.7481,0.7465,0.7491,0.7484,0.751,0.7508,0.755,0.7556,0.7558,0.7557,0.7561,0.7561,0.7571,0.7567,0.7553,0.7552,0.7551,0.7551,0,0.7388,0.7384,0.7427,0.7436,0.7439,0.7469,0.7478,0.7502,0.7502,0.7536,0.7544,0.7545,0.7574,0.7573,0.7606,0.7605,0.7657,0.765,0.7652,0.7652,0.7687,0.7685,0.7801,0.7817,0.7711,0.7712,0.7713,0,0.7438,0.7466,0.7478,0.7494,0.7501,0.7528,0.7543,0.7535,0.7552,0.7571,0.7593,0.7621,0.7643,0.7691,0.7696,0.7722,0.7716,0.7755,0.772,0.7723,0.7719,0.7718,0.7722,0.7763,0.7764,0.7765,0.7766,0,0.7529,0.7526,0.7548,0.757,0.7588,0.7606,0.7621,0.7636,0.763,0.765,0.7679,0.7696,0.773,0.7758,0.7783,0.7791,0.7779,0.7776,0.7786,0.7791,0.7791,0.7793,0.7673,0.7774,0.7774,0.7773,0.7772,0.7772,0.7596,0.762,0.7632,0.7657,0.7668,0.7683,0.7706,0.7709,0.7733,0.776,0.7754,0.7787,0.7802,0.7833,0.7844,0.7871,0.7857,0.7871,0.7875,0.7879,0.7884,0.7785,0.7875,0.7875,0.7875,0.7874,0.7874,0,0.7687,0.7693,0.7717,0.7739,0.7759,0.7743,0.776,0.7779,0.7808,0.7822,0.7843,0.7878,0.7905,0.7912,0.7938,0.7959,0.7954,0.7966,0.7966,0.7968,0.7894,0.7883,0.797,0.797,0.797,0.797,0.797,0.797,0.7737,0.7777,0.7776,0.7822,0.7828,0.786,0.7871,0.7885,0.7896,0.7935,0.7957,0.7961,0.7973,0.8,0.8025,0.8026,0.8038,0.8053,0.8052,0.7983,0.7973,0.7964,0.7954,0.8055,0.8055,0.8125,0.8125,0.8126]}]]